Location: Newark
(51.5100°N, 0.1300°W)
Time: 05:12:15
(UTC+00:00)

ISS - Visible Passes

Search period start: 10 December 2019 00:00
Search period end: 20 December 2019 00:00
Orbit: 411 x 421 km, 51.6° (Epoch: 10 December)

Date Brightness Start Highest point End Pass type
(mag) Time Alt. Az. Time Alt. Az. Time Alt. Az.
10 Dec -1.2 17:24:32 10° W 17:27:09 21° SW 17:29:46 10° SSE visible
11 Dec -1.6 16:35:50 10° W 16:38:49 29° SSW 16:41:47 10° SSE visible
12 Dec -0.1 17:25:57 10° SW 17:26:30 10° SW 17:27:01 10° SW visible
13 Dec -0.5 16:36:09 10° WSW 16:38:13 15° SW 16:40:18 10° S visible
